TimeCDT,TemperatureF,Dew PointF,Humidity,Sea Level PressureIn,VisibilityMPH,Wind Direction,Wind SpeedMPH,Gust SpeedMPH,PrecipitationIn,Events,Conditions,WindDirDegrees,DateUTC
12:15 AM,39.2,32.2,76,29.84,10.0,Calm,Calm,-,N/A,,Clear,0,2013-04-12 05:15:00
12:35 AM,38.8,32.9,79,29.85,10.0,Calm,Calm,-,N/A,,Clear,0,2013-04-12 05:35:00
12:55 AM,38.7,35.2,87,29.85,10.0,Calm,Calm,-,N/A,,Clear,0,2013-04-12 05:55:00
1:15 AM,37.9,34.7,88,29.86,10.0,Calm,Calm,-,N/A,,Clear,0,2013-04-12 06:15:00
1:35 AM,37.0,33.3,86,29.86,10.0,Calm,Calm,-,N/A,,Clear,0,2013-04-12 06:35:00
1:55 AM,36.9,33.8,89,29.86,10.0,Calm,Calm,-,N/A,,Clear,0,2013-04-12 06:55:00
2:15 AM,36.3,32.9,87,29.86,10.0,Calm,Calm,-,N/A,,Clear,0,2013-04-12 07:15:00
2:35 AM,36.7,32.9,86,29.87,10.0,Calm,Calm,-,N/A,,Clear,0,2013-04-12 07:35:00
2:55 AM,36.5,32.7,86,29.87,10.0,Calm,Calm,-,N/A,,Clear,0,2013-04-12 07:55:00
3:15 AM,36.5,33.1,87,29.87,10.0,Calm,Calm,-,N/A,,Clear,0,2013-04-12 08:15:00
3:35 AM,36.1,32.9,88,29.88,7.0,Calm,Calm,-,N/A,,Clear,0,2013-04-12 08:35:00
3:55 AM,35.2,32.0,88,29.88,10.0,Calm,Calm,-,N/A,,Clear,0,2013-04-12 08:55:00
4:15 AM,35.6,32.5,89,29.89,10.0,Calm,Calm,-,N/A,,Clear,0,2013-04-12 09:15:00
4:35 AM,35.2,32.0,88,29.89,10.0,Calm,Calm,-,N/A,,Clear,0,2013-04-12 09:35:00
4:55 AM,35.2,32.0,88,29.90,10.0,Calm,Calm,-,N/A,,Clear,0,2013-04-12 09:55:00
5:15 AM,35.2,32.2,89,29.90,10.0,Calm,Calm,-,N/A,,Clear,0,2013-04-12 10:15:00
5:35 AM,34.9,32.0,89,29.90,10.0,Calm,Calm,-,N/A,,Clear,0,2013-04-12 10:35:00
5:55 AM,35.6,32.9,90,29.91,10.0,Calm,Calm,-,N/A,,Clear,0,2013-04-12 10:55:00
6:15 AM,36.1,33.4,90,29.91,10.0,Calm,Calm,-,N/A,,Clear,0,2013-04-12 11:15:00
6:35 AM,36.5,33.8,90,29.92,10.0,Calm,Calm,-,N/A,,Clear,0,2013-04-12 11:35:00
6:55 AM,35.6,33.8,93,29.93,10.0,Calm,Calm,-,N/A,,Clear,0,2013-04-12 11:55:00
7:55 AM,42.8,37.4,81,29.96,10.0,North,9.2,-,N/A,,Clear,350,2013-04-12 12:55:00
9:55 AM,55.4,35.6,47,30.00,10.0,NE,12.7,-,N/A,,Clear,40,2013-04-12 14:55:00
1:55 PM,68.0,35.6,30,29.99,10.0,Calm,Calm,-,N/A,,Clear,0,2013-04-12 18:55:00
2:55 PM,69.8,33.8,27,29.97,10.0,Calm,Calm,-,N/A,,Clear,0,2013-04-12 19:55:00
11:35 PM,58.1,37.6,46,29.95,10.0,ESE,5.8,-,N/A,,Clear,120,2013-04-13 04:35:00
11:55 PM,57.2,37.9,49,29.95,10.0,ESE,6.9,-,N/A,,Clear,120,2013-04-13 04:55:00